Pueblo, CO

2:59 AM MDT on July 24, 2017 (GMT -0600)
Pueblo Memorial

Weather History for KPUB - April, 2013

Change the Weather History Date:

Sunday, April 28, 2013

  Actual Average Record
Temperature  
Mean Temperature 60 °F 55 °F  
Max Temperature 83 °F 71 °F 88 °F (1910)
Min Temperature 37 °F 38 °F 20 °F (1932)
Degree Days  
Heating Degree Days 5 11  
Month to date heating degree days 538 416  
Since 1 July heating degree days 5510 5421  
Cooling Degree Days 0 0  
Month to date cooling degree days 0 0  
Year to date cooling degree days 0 0  
Growing Degree Days 10 (Base 50)    
Moisture  
Dew Point 12 °F    
Average Humidity 23    
Maximum Humidity 40    
Minimum Humidity 6    
Precipitation  
Precipitation 0.00 in 0.06 in 1.08 in (2017)
Month to date precipitation 0.30 1.29  
Year to date precipitation 1.20 2.87  
Snow  
Snow 0.00 in 0.10 in 0.60 in (1917)
Month to date snowfall 3.5 3.6  
Since 1 July snowfall 23.9 31.1  
Snow Depth 0.00 in    
Sea Level Pressure  
Sea Level Pressure 29.80 in    
Wind  
Wind Speed 8 mph (West)    
Max Wind Speed 15 mph    
Max Gust Speed 18 mph    
Visibility 10 miles    
Events      
T = Trace of Precipitation, MM = Missing Value Source: NWS Daily Summary

Daily Weather History Graph

Daily Weather History Graph

Search for Another Location

Airport or City:

Trip Planner

Search our weather history database for the weather conditions in past years. The results will help you decide how hot, cold, wet, or windy it might be!

Date:

Astronomy

Apr. 28, 2013 Rise Set
Actual Time 6:04 AM MDT 7:46 PM MDT
Civil Twilight 5:36 AM MDT 8:15 PM MDT
Nautical Twilight 5:02 AM MDT 8:49 PM MDT
Astronomical Twilight 4:25 AM MDT 9:25 PM MDT
Moon 11:18 PM MDT (4/28) 8:25 AM MDT (4/28)
Length of Visible Light 14h 38m
Length of Day
13h 42m
Waning Gibbous, 88% of the Moon is Illuminated
Apr 28
Waning Gibbous
May 2
Last Quarter
May 9
New
May 17
First Quarter
May 24
Full

Hourly Weather History & Observations

Time (MDT) Temp. Windchill Dew Point Humidity Pressure Visibility Wind Dir Wind Speed Gust Speed Precip Events Conditions
12:53 AM 44.1 °F 40.8 °F 10.9 °F 26% 29.95 in 10.0 mi SW 5.8 mph - N/A   Clear
1:53 AM 43.0 °F 38.8 °F 12.9 °F 30% 29.94 in 10.0 mi WSW 6.9 mph - N/A   Clear
2:53 AM 43.0 °F - 15.1 °F 32% 29.91 in 10.0 mi Calm Calm - N/A   Clear
3:53 AM 37.0 °F 31.6 °F 12.9 °F 37% 29.93 in 10.0 mi West 6.9 mph - N/A   Clear
4:53 AM 37.9 °F 32.1 °F 15.1 °F 39% 29.92 in 10.0 mi West 8.1 mph - N/A   Clear
5:53 AM 41.0 °F 36.4 °F 17.1 °F 38% 29.91 in 10.0 mi West 6.9 mph - N/A   Clear
6:53 AM 42.8 °F 38.6 °F 17.6 °F 36% 30.03 in 10.0 mi West 6.9 mph - N/A   Clear
7:53 AM 54.0 °F - 19.0 °F 25% 29.90 in 10.0 mi West 10.4 mph - N/A   Clear
8:53 AM 62.1 °F - 19.0 °F 19% 29.88 in 10.0 mi WNW 10.4 mph - N/A   Clear
9:53 AM 71.1 °F - 14.0 °F 11% 29.85 in 10.0 mi West 12.7 mph 18.4 mph N/A   Clear
10:53 AM 75.0 °F - 10.9 °F 9% 29.84 in 10.0 mi SW 9.2 mph - N/A   Clear
11:53 AM 75.9 °F - 10.0 °F 8% 29.82 in 10.0 mi Variable 5.8 mph 16.1 mph N/A   Clear
12:53 PM 79.0 °F - 10.9 °F 8% 29.79 in 10.0 mi West 11.5 mph 17.3 mph N/A   Clear
1:53 PM 81.0 °F - 10.0 °F 7% 29.77 in 10.0 mi NE 10.4 mph - N/A   Clear
2:53 PM 82.0 °F - 8.1 °F 6% 29.74 in 10.0 mi WSW 10.4 mph - N/A   Clear
3:53 PM 81.0 °F - 8.1 °F 6% 29.72 in 10.0 mi East 9.2 mph - N/A   Clear
4:53 PM 82.0 °F - 8.1 °F 6% 29.69 in 10.0 mi ENE 13.8 mph 17.3 mph N/A   Clear
5:53 PM 81.0 °F - 8.1 °F 6% 29.68 in 10.0 mi ESE 11.5 mph - N/A   Clear
6:53 PM 78.1 °F - 8.1 °F 7% 29.69 in 10.0 mi ESE 10.4 mph - N/A   Clear
7:53 PM 73.9 °F - 8.1 °F 8% 29.68 in 10.0 mi ENE 3.5 mph - N/A   Clear
8:53 PM 69.1 °F - 9.0 °F 10% 29.68 in 10.0 mi ESE 5.8 mph - N/A   Clear
9:53 PM 64.9 °F - 9.0 °F 11% 29.68 in 10.0 mi Calm Calm - N/A   Clear
10:53 PM 55.0 °F - 9.0 °F 16% 29.70 in 10.0 mi North 5.8 mph - N/A   Clear
11:53 PM 53.1 °F - 9.0 °F 17% 29.70 in 10.0 mi North 8.1 mph - N/A   Clear